TimeEST,TemperatureF,Dew PointF,Humidity,Sea Level PressureIn,VisibilityMPH,Wind Direction,Wind SpeedMPH,Gust SpeedMPH,PrecipitationIn,Events,Conditions,WindDirDegrees,DateUTC
12:53 AM,50.0,46.0,86,30.10,10.0,Calm,Calm,-,N/A,,Overcast,0,2012-11-27 05:53:00
1:53 AM,51.1,46.0,83,30.10,8.0,Calm,Calm,-,0.00,Rain,Light Rain,0,2012-11-27 06:53:00
2:49 AM,48.2,46.4,93,30.10,10.0,Calm,Calm,-,0.00,,Mostly Cloudy,0,2012-11-27 07:49:00
2:53 AM,48.9,46.9,93,30.09,10.0,Calm,Calm,-,0.00,,Mostly Cloudy,0,2012-11-27 07:53:00
3:53 AM,50.0,48.0,93,30.09,9.0,Calm,Calm,-,N/A,,Overcast,0,2012-11-27 08:53:00
4:53 AM,51.1,46.9,86,30.08,10.0,East,25.3,42.6,N/A,,Overcast,90,2012-11-27 09:53:00
5:53 AM,51.1,48.0,89,30.09,10.0,Variable,4.6,-,N/A,,Overcast,0,2012-11-27 10:53:00
6:53 AM,51.1,48.9,92,30.09,10.0,Calm,Calm,-,0.02,,Overcast,0,2012-11-27 11:53:00
7:53 AM,50.0,48.9,96,30.12,6.0,Calm,Calm,-,0.00,Rain,Light Rain,0,2012-11-27 12:53:00
8:02 AM,50.0,50.0,100,30.12,1.8,East,3.5,-,0.00,Rain,Light Rain,100,2012-11-27 13:02:00
8:15 AM,50.0,48.2,94,30.14,3.0,Calm,Calm,-,0.00,,Overcast,0,2012-11-27 13:15:00
8:49 AM,51.8,50.0,94,30.15,5.0,Calm,Calm,-,0.00,,Overcast,0,2012-11-27 13:49:00
8:53 AM,51.1,50.0,96,30.14,5.0,Calm,Calm,-,0.00,,Overcast,0,2012-11-27 13:53:00
9:07 AM,51.8,50.0,94,30.13,6.0,SSE,4.6,-,N/A,,Overcast,150,2012-11-27 14:07:00
9:53 AM,51.1,51.1,100,30.14,4.0,North,4.6,-,N/A,,Overcast,360,2012-11-27 14:53:00
10:25 AM,51.8,51.8,100,30.16,1.8,NNE,4.6,-,N/A,,Overcast,20,2012-11-27 15:25:00
10:36 AM,51.8,51.8,100,30.17,2.0,Calm,Calm,-,N/A,,Overcast,0,2012-11-27 15:36:00
10:50 AM,51.8,50.0,94,30.16,5.0,North,8.1,-,N/A,,Overcast,10,2012-11-27 15:50:00
10:53 AM,52.0,51.1,97,30.16,6.0,North,9.2,-,N/A,,Overcast,360,2012-11-27 15:53:00
11:53 AM,53.1,50.0,89,30.16,8.0,North,10.4,-,N/A,,Overcast,350,2012-11-27 16:53:00
12:33 PM,53.6,48.2,82,30.16,10.0,North,10.4,-,N/A,,Overcast,360,2012-11-27 17:33:00
12:53 PM,53.1,48.9,86,30.15,10.0,North,11.5,-,N/A,,Overcast,10,2012-11-27 17:53:00
1:53 PM,52.0,48.0,86,30.14,10.0,North,8.1,-,N/A,,Overcast,10,2012-11-27 18:53:00
2:53 PM,51.1,46.0,83,30.15,10.0,North,9.2,-,N/A,,Overcast,10,2012-11-27 19:53:00
3:53 PM,51.1,45.0,80,30.16,10.0,NNW,8.1,-,N/A,,Overcast,340,2012-11-27 20:53:00
4:53 PM,50.0,44.1,80,30.18,10.0,North,12.7,-,N/A,,Overcast,360,2012-11-27 21:53:00
5:53 PM,50.0,44.1,80,30.19,10.0,North,8.1,-,N/A,,Overcast,360,2012-11-27 22:53:00
7:53 PM,48.9,42.1,77,30.23,10.0,NNW,9.2,-,N/A,,Overcast,340,2012-11-28 00:53:00
8:53 PM,48.0,41.0,77,30.25,10.0,NNW,6.9,-,N/A,,Overcast,340,2012-11-28 01:53:00
9:53 PM,46.9,39.9,77,30.26,10.0,North,9.2,-,N/A,,Overcast,350,2012-11-28 02:53:00
10:53 PM,46.0,39.9,79,30.26,10.0,NNW,5.8,-,N/A,,Overcast,340,2012-11-28 03:53:00
11:29 PM,44.6,37.4,76,30.26,10.0,North,5.8,-,N/A,,Scattered Clouds,360,2012-11-28 04:29:00
11:53 PM,42.1,37.9,85,30.26,10.0,NNE,3.5,-,N/A,,Clear,20,2012-11-28 04:53:00